TimeEST,TemperatureF,Dew PointF,Humidity,Sea Level PressureIn,VisibilityMPH,Wind Direction,Wind SpeedMPH,Gust SpeedMPH,PrecipitationIn,Events,Conditions,WindDirDegrees,DateUTC
12:54 AM,24.1,18.0,77,30.31,10.0,East,3.5,-,N/A,,Mostly Cloudy,80,2013-01-09 05:54:00
1:54 AM,19.9,14.0,78,30.30,8.0,Calm,Calm,-,N/A,,Partly Cloudy,0,2013-01-09 06:54:00
2:54 AM,21.0,17.1,85,30.31,8.0,East,3.5,-,N/A,,Partly Cloudy,90,2013-01-09 07:54:00
3:54 AM,16.0,10.9,81,30.29,6.0,ENE,3.5,-,N/A,,Haze,70,2013-01-09 08:54:00
4:54 AM,16.0,12.0,84,30.27,6.0,East,3.5,-,N/A,,Partly Cloudy,80,2013-01-09 09:54:00
5:54 AM,18.0,12.9,81,30.27,7.0,East,5.8,-,N/A,,Scattered Clouds,80,2013-01-09 10:54:00
6:54 AM,19.0,15.1,85,30.25,7.0,East,4.6,-,N/A,,Mostly Cloudy,80,2013-01-09 11:54:00
7:54 AM,19.0,14.0,81,30.24,7.0,NE,3.5,-,N/A,,Mostly Cloudy,50,2013-01-09 12:54:00
8:54 AM,23.0,17.1,78,30.19,7.0,East,8.1,-,N/A,,Overcast,80,2013-01-09 13:54:00
9:54 AM,30.9,21.9,69,30.16,9.0,SE,4.6,-,N/A,,Overcast,130,2013-01-09 14:54:00
10:35 AM,41.0,24.8,53,30.14,10.0,South,11.5,-,N/A,,Overcast,180,2013-01-09 15:35:00
10:54 AM,41.0,26.1,55,30.15,10.0,South,9.2,-,N/A,,Overcast,190,2013-01-09 15:54:00
11:54 AM,42.1,27.0,55,30.04,10.0,Variable,6.9,-,N/A,,Overcast,0,2013-01-09 16:54:00
12:54 PM,44.1,28.0,53,30.00,10.0,South,11.5,20.7,N/A,,Overcast,180,2013-01-09 17:54:00
1:54 PM,46.0,30.0,54,29.97,10.0,SSW,9.2,-,N/A,,Mostly Cloudy,200,2013-01-09 18:54:00
2:54 PM,46.9,30.9,54,29.95,10.0,SW,18.4,27.6,N/A,,Scattered Clouds,220,2013-01-09 19:54:00
3:54 PM,46.0,32.0,58,29.96,10.0,WSW,15.0,19.6,N/A,,Scattered Clouds,240,2013-01-09 20:54:00
4:54 PM,44.1,30.9,60,30.00,10.0,WSW,15.0,24.2,N/A,,Scattered Clouds,250,2013-01-09 21:54:00
5:54 PM,43.0,28.0,56,30.04,10.0,West,21.9,34.5,N/A,,Partly Cloudy,260,2013-01-09 22:54:00
6:54 PM,41.0,27.0,57,30.09,10.0,West,19.6,26.5,N/A,,Clear,260,2013-01-09 23:54:00
7:54 PM,41.0,28.0,60,30.10,10.0,WSW,15.0,-,N/A,,Mostly Cloudy,250,2013-01-10 00:54:00
8:54 PM,41.0,28.0,60,30.12,10.0,WSW,21.9,32.2,N/A,,Mostly Cloudy,250,2013-01-10 01:54:00
9:54 PM,41.0,28.0,60,30.17,10.0,West,21.9,34.5,0.00,Rain,Light Rain,260,2013-01-10 02:54:00
10:54 PM,41.0,24.1,51,30.22,10.0,West,26.5,39.1,0.00,,Overcast,280,2013-01-10 03:54:00
11:54 PM,39.9,25.0,55,30.25,10.0,West,20.7,28.8,N/A,,Overcast,270,2013-01-10 04:54:00